Find Starlink 32959

NORAD ID: 63569 Int'l Des: 2025-076 Owner: SPXS Country: US Constellation: starlink operational
LEOCIRCULAR

实时位置

正在加载3D地球...

关于 Starlink 32959

正在加载描述...

即将过境

Passes for default location (London). Set your location on the main map for personalized predictions.

高度历史

Loading altitude history...

两行轨道根数

1 63569U 25076A 26126.35022450 .00020680 00000-0 75996-3 0 9992
2 63569 43.0020 0.0375 0001917 270.5979 89.4653 15.27533660 60607
Epoch: May 6, 2026 • Age: 16 hours

当前状态

高度 485.4 km
速度 7.62 km/s
星下点 -14.94°S, 114.95°E
发射日期 Apr 14, 2025
运行时间 1 years
类型 internet

技术详情

分类 Payload
质量 730.00 kg
干质量 700.00 kg
总质量 730.00 kg
长度 0.30 m
直径 4.10 m
跨度 29.00 m
形状 Box + pan
制造商 SPXS
平台类型 Starlink V2M
阶段状态 In Orbit
所有者/国家 SPXS/US

Most Searched